SLI1413 MMTM-MMMX

Flight info

Callsign SLI1413
Flight time 0h 39m
Altitude 36000
Route TAM1A TAM UT102 PAZ UT154 ENAGA ENAGA3A
Aircraft E190/M-SDE3GILORVW/S

Departure

Time 2026-04-23 04:06
Airport General Francisco Javier Mina International Airport (MMTM)

Arrival

Time 2026-04-23 04:45
Airport Mexico City Benito Juárez International Airport (MMMX)
Time Latitude Longitude Altitude Speed Heading
2026-04-23 03:23 22.28946 -97.86903 91 ft 0 kts 218°
2026-04-23 03:51 22.28954 -97.86897 91 ft 2 kts 218°
2026-04-23 03:51 22.28966 -97.86887 91 ft 2 kts 218°
2026-04-23 03:52 22.28977 -97.86877 91 ft 2 kts 218°
2026-04-23 03:52 22.28986 -97.86865 90 ft 2 kts 253°
2026-04-23 03:52 22.28986 -97.86850 90 ft 2 kts 292°
2026-04-23 03:52 22.28977 -97.86838 90 ft 2 kts 328°
2026-04-23 03:53 22.28970 -97.86832 90 ft 2 kts 326°
2026-04-23 03:53 22.28958 -97.86823 90 ft 2 kts 324°
2026-04-23 03:53 22.28947 -97.86816 90 ft 0 kts 324°
2026-04-23 04:00 22.28948 -97.86816 90 ft 0 kts 324°
2026-04-23 04:00 22.28956 -97.86822 90 ft 2 kts 325°
2026-04-23 04:00 22.28977 -97.86838 90 ft 4 kts 324°
2026-04-23 04:01 22.29011 -97.86864 90 ft 6 kts 324°
2026-04-23 04:01 22.29057 -97.86900 91 ft 9 kts 324°
2026-04-23 04:01 22.29115 -97.86929 91 ft 10 kts 16°
2026-04-23 04:01 22.29185 -97.86878 90 ft 13 kts
2026-04-23 04:02 22.29290 -97.86887 89 ft 16 kts 356°
2026-04-23 04:02 22.29413 -97.86897 87 ft 18 kts 354°
2026-04-23 04:02 22.29540 -97.86919 87 ft 18 kts 334°
2026-04-23 04:02 22.29651 -97.86998 88 ft 18 kts 324°
2026-04-23 04:03 22.29761 -97.87077 89 ft 18 kts 328°
2026-04-23 04:03 22.29870 -97.87156 91 ft 18 kts 325°
2026-04-23 04:03 22.29977 -97.87238 92 ft 18 kts 323°
2026-04-23 04:03 22.30084 -97.87322 93 ft 18 kts 323°
2026-04-23 04:04 22.30132 -97.87423 95 ft 11 kts 308°
2026-04-23 04:04 22.30190 -97.87421 95 ft 5 kts 53°
2026-04-23 04:04 22.30189 -97.87401 94 ft 0 kts 141°
2026-04-23 04:04 22.30184 -97.87397 94 ft 0 kts 142°
2026-04-23 04:05 22.30178 -97.87392 94 ft 5 kts 142°
2026-04-23 04:05 22.30027 -97.87275 92 ft 60 kts 143°
2026-04-23 04:05 22.29483 -97.86865 87 ft 126 kts 144°
2026-04-23 04:05 22.28635 -97.86228 263 ft 158 kts 143°
2026-04-23 04:06 22.27728 -97.85482 767 ft 173 kts 139°
2026-04-23 04:06 22.26829 -97.84639 1577 ft 170 kts 135°
2026-04-23 04:06 22.25971 -97.83916 2482 ft 159 kts 151°
2026-04-23 04:06 22.24733 -97.83604 2548 ft 203 kts 173°
2026-04-23 04:07 22.23267 -97.83585 3196 ft 218 kts 185°
2026-04-23 04:07 22.21719 -97.84002 3861 ft 233 kts 193°
2026-04-23 04:07 22.20088 -97.84332 4581 ft 241 kts 182°
2026-04-23 04:07 22.18395 -97.84308 5333 ft 247 kts 174°
2026-04-23 04:08 22.16648 -97.84070 5915 ft 264 kts 168°
2026-04-23 04:08 22.14752 -97.83672 6434 ft 285 kts 166°
2026-04-23 04:08 22.12811 -97.83192 7234 ft 292 kts 165°
2026-04-23 04:08 22.10831 -97.82669 8166 ft 293 kts 165°
2026-04-23 04:09 22.08852 -97.82129 9067 ft 294 kts 164°
2026-04-23 04:09 22.06879 -97.81582 9902 ft 296 kts 164°
2026-04-23 04:09 22.04860 -97.81019 10613 ft 304 kts 165°
2026-04-23 04:09 22.02770 -97.80435 11175 ft 316 kts 165°
2026-04-23 04:10 22.00579 -97.79823 11738 ft 328 kts 166°
2026-04-23 04:10 21.98345 -97.79198 12275 ft 340 kts 166°
2026-04-23 04:10 21.96010 -97.78545 12909 ft 348 kts 166°
2026-04-23 04:10 21.93629 -97.77880 13633 ft 352 kts 166°
2026-04-23 04:11 21.91239 -97.77213 14353 ft 356 kts 166°
2026-04-23 04:11 21.88801 -97.76531 15087 ft 360 kts 167°
2026-04-23 04:11 21.86316 -97.75909 15772 ft 364 kts 169°
2026-04-23 04:11 21.83784 -97.75294 16431 ft 369 kts 169°
2026-04-23 04:12 21.81232 -97.74675 17071 ft 374 kts 169°
2026-04-23 04:12 21.78692 -97.74058 17693 ft 379 kts 169°
2026-04-23 04:12 21.76102 -97.73430 18330 ft 382 kts 169°
2026-04-23 04:12 21.73479 -97.72794 18946 ft 386 kts 170°
2026-04-23 04:13 21.70840 -97.72154 19565 ft 389 kts 170°
2026-04-23 04:13 21.68179 -97.71510 20138 ft 393 kts 171°
2026-04-23 04:13 21.65478 -97.70856 20706 ft 397 kts 170°
2026-04-23 04:13 21.62750 -97.70194 21229 ft 402 kts 171°
2026-04-23 04:14 21.59989 -97.69527 21778 ft 405 kts 171°
2026-04-23 04:14 21.57242 -97.68862 22326 ft 408 kts 171°
2026-04-23 04:14 21.54415 -97.68179 22821 ft 413 kts 171°
2026-04-23 04:14 21.51600 -97.67498 23334 ft 416 kts 171°
2026-04-23 04:15 21.48777 -97.66815 23809 ft 420 kts 172°
2026-04-23 04:15 21.45901 -97.66122 24301 ft 424 kts 171°
2026-04-23 04:15 21.40064 -97.64712 25294 ft 430 kts 172°
2026-04-23 04:16 21.37144 -97.64008 25770 ft 433 kts 172°
2026-04-23 04:16 21.34204 -97.63299 26228 ft 436 kts 172°
2026-04-23 04:16 21.31211 -97.62577 26695 ft 439 kts 172°
2026-04-23 04:16 21.28213 -97.61855 27138 ft 443 kts 172°
2026-04-23 04:17 21.25183 -97.61125 27588 ft 445 kts 172°
2026-04-23 04:17 21.22127 -97.60389 28029 ft 448 kts 172°
2026-04-23 04:17 21.19077 -97.59655 28422 ft 452 kts 172°
2026-04-23 04:17 21.15993 -97.58913 28810 ft 455 kts 172°
2026-04-23 04:18 21.12916 -97.58173 29245 ft 457 kts 172°
2026-04-23 04:18 21.09781 -97.57420 29641 ft 460 kts 172°
2026-04-23 04:18 21.06670 -97.56672 30030 ft 462 kts 172°
2026-04-23 04:18 21.03511 -97.55913 30401 ft 465 kts 172°
2026-04-23 04:19 21.00308 -97.55145 30833 ft 466 kts 171°
2026-04-23 04:19 20.97133 -97.54384 31205 ft 468 kts 172°
2026-04-23 04:19 20.93944 -97.53619 31583 ft 470 kts 172°
2026-04-23 04:19 20.90725 -97.52847 32013 ft 470 kts 171°
2026-04-23 04:20 20.87521 -97.52078 32501 ft 469 kts 171°
2026-04-23 04:20 20.84366 -97.51323 33037 ft 466 kts 171°
2026-04-23 04:20 20.81195 -97.50564 33631 ft 463 kts 171°
2026-04-23 04:20 20.78089 -97.49820 34288 ft 459 kts 172°
2026-04-23 04:21 20.74999 -97.49081 35080 ft 452 kts 172°
2026-04-23 04:21 20.71959 -97.48354 35731 ft 447 kts 172°
2026-04-23 04:21 20.68935 -97.47715 35949 ft 434 kts 179°
2026-04-23 04:22 20.62931 -97.48029 36016 ft 435 kts 199°
2026-04-23 04:22 20.57249 -97.50187 36001 ft 430 kts 211°
2026-04-23 04:23 20.52505 -97.53805 36025 ft 415 kts 231°
2026-04-23 04:23 20.50668 -97.56203 35611 ft 413 kts 240°
2026-04-23 04:23 20.49181 -97.58782 35183 ft 412 kts 240°
2026-04-23 04:23 20.47488 -97.61235 34740 ft 415 kts 236°
2026-04-23 04:24 20.45656 -97.63647 34302 ft 419 kts 234°
2026-04-23 04:24 20.43792 -97.66030 33846 ft 423 kts 234°
2026-04-23 04:24 20.41886 -97.68443 33387 ft 423 kts 234°
2026-04-23 04:24 20.39990 -97.70835 32929 ft 427 kts 234°
2026-04-23 04:25 20.38079 -97.73244 32474 ft 427 kts 234°
2026-04-23 04:25 20.36145 -97.75680 32012 ft 431 kts 234°
2026-04-23 04:25 20.34221 -97.78101 31533 ft 432 kts 234°
2026-04-23 04:25 20.32259 -97.80570 31091 ft 435 kts 234°
2026-04-23 04:26 20.30322 -97.83006 30653 ft 436 kts 234°
2026-04-23 04:26 20.28364 -97.85468 30192 ft 437 kts 234°
2026-04-23 04:26 20.26400 -97.87935 29731 ft 433 kts 234°
2026-04-23 04:26 20.24448 -97.90386 29289 ft 432 kts 234°
2026-04-23 04:27 20.22528 -97.92796 28842 ft 430 kts 234°
2026-04-23 04:27 20.20598 -97.95219 28420 ft 427 kts 234°
2026-04-23 04:27 20.18697 -97.97603 28008 ft 422 kts 234°
2026-04-23 04:28 20.14901 -98.02361 27082 ft 416 kts 234°
2026-04-23 04:28 20.13051 -98.04681 26632 ft 412 kts 234°
2026-04-23 04:28 20.11205 -98.06988 26200 ft 409 kts 234°
2026-04-23 04:28 20.09363 -98.09291 26168 ft 405 kts 234°
2026-04-23 04:29 20.07513 -98.11603 26166 ft 407 kts 234°
2026-04-23 04:29 20.05675 -98.13899 26173 ft 409 kts 234°
2026-04-23 04:29 20.03812 -98.16223 26175 ft 409 kts 234°
2026-04-23 04:29 20.02063 -98.18577 26164 ft 406 kts 244°
2026-04-23 04:30 20.00754 -98.21240 26193 ft 403 kts 248°
2026-04-23 04:30 19.99503 -98.23919 26198 ft 402 kts 248°
2026-04-23 04:30 19.98268 -98.26570 26199 ft 401 kts 248°
2026-04-23 04:30 19.97033 -98.29219 26199 ft 401 kts 248°
2026-04-23 04:31 19.95796 -98.31873 26199 ft 403 kts 248°
2026-04-23 04:31 19.94551 -98.34543 26200 ft 401 kts 248°
2026-04-23 04:31 19.93304 -98.37215 26199 ft 401 kts 248°
2026-04-23 04:31 19.92068 -98.39862 26197 ft 403 kts 248°
2026-04-23 04:32 19.90802 -98.42572 26198 ft 404 kts 248°
2026-04-23 04:32 19.89551 -98.45250 26098 ft 404 kts 248°
2026-04-23 04:32 19.88297 -98.47932 25669 ft 403 kts 248°
2026-04-23 04:32 19.87063 -98.50571 25231 ft 400 kts 248°
2026-04-23 04:33 19.85834 -98.53197 24788 ft 395 kts 248°
2026-04-23 04:33 19.84621 -98.55789 24355 ft 392 kts 248°
2026-04-23 04:33 19.83411 -98.58373 23918 ft 388 kts 248°
2026-04-23 04:33 19.82222 -98.60910 23493 ft 386 kts 247°
2026-04-23 04:34 19.81026 -98.63460 23062 ft 383 kts 248°
2026-04-23 04:34 19.79848 -98.65973 22645 ft 382 kts 247°
2026-04-23 04:34 19.78666 -98.68491 22225 ft 379 kts 247°
2026-04-23 04:34 19.77493 -98.70991 21801 ft 379 kts 247°
2026-04-23 04:35 19.76327 -98.73475 21377 ft 379 kts 247°
2026-04-23 04:35 19.75152 -98.75974 20948 ft 377 kts 247°
2026-04-23 04:35 19.73985 -98.78457 20531 ft 375 kts 246°
2026-04-23 04:35 19.72820 -98.80934 20107 ft 374 kts 246°
2026-04-23 04:36 19.71660 -98.83401 19685 ft 372 kts 246°
2026-04-23 04:36 19.70510 -98.85844 19275 ft 370 kts 246°
2026-04-23 04:36 19.69370 -98.88265 18841 ft 369 kts 246°
2026-04-23 04:36 19.68227 -98.90691 18431 ft 367 kts 246°
2026-04-23 04:37 19.67086 -98.93111 18020 ft 366 kts 246°
2026-04-23 04:37 19.65956 -98.95510 17609 ft 364 kts 246°
2026-04-23 04:37 19.64831 -98.97894 17207 ft 363 kts 246°
2026-04-23 04:37 19.63693 -99.00307 16799 ft 362 kts 246°
2026-04-23 04:38 19.62571 -99.02683 16402 ft 359 kts 246°
2026-04-23 04:38 19.61466 -99.05023 16008 ft 356 kts 246°
2026-04-23 04:38 19.60376 -99.07329 15614 ft 345 kts 246°
2026-04-23 04:38 19.59306 -99.09593 15229 ft 335 kts 246°
2026-04-23 04:39 19.58287 -99.11747 14861 ft 325 kts 246°
2026-04-23 04:39 19.57289 -99.13856 14517 ft 316 kts 246°
2026-04-23 04:39 19.56313 -99.15919 14164 ft 308 kts 247°
2026-04-23 04:39 19.55360 -99.17934 13824 ft 300 kts 246°
2026-04-23 04:40 19.54444 -99.19867 13506 ft 293 kts 247°
2026-04-23 04:40 19.53488 -99.21787 13188 ft 289 kts 237°
2026-04-23 04:40 19.51958 -99.23091 12928 ft 286 kts 203°
2026-04-23 04:40 19.50004 -99.23438 12494 ft 288 kts 180°
2026-04-23 04:41 19.47988 -99.23428 12088 ft 286 kts 180°
2026-04-23 04:41 19.45989 -99.23404 11710 ft 283 kts 179°
2026-04-23 04:41 19.44030 -99.23375 11344 ft 280 kts 179°
2026-04-23 04:41 19.42099 -99.23236 10981 ft 276 kts 162°
2026-04-23 04:42 19.40520 -99.22199 10666 ft 266 kts 128°
2026-04-23 04:42 19.39507 -99.20583 10395 ft 256 kts 120°
2026-04-23 04:42 19.38625 -99.19003 10079 ft 242 kts 118°
2026-04-23 04:42 19.37892 -99.17429 9753 ft 233 kts 101°
2026-04-23 04:43 19.38109 -99.15812 9484 ft 220 kts 59°
2026-04-23 04:43 19.39108 -99.14737 9477 ft 188 kts 47°
2026-04-23 04:43 19.39861 -99.13683 9126 ft 178 kts 58°
2026-04-23 04:43 19.40487 -99.12578 8636 ft 172 kts 60°
2026-04-23 04:44 19.41084 -99.11558 8369 ft 157 kts 59°
2026-04-23 04:44 19.41622 -99.10575 8015 ft 154 kts 62°
2026-04-23 04:44 19.42160 -99.09576 7774 ft 155 kts 63°
2026-04-23 04:44 19.42684 -99.08624 7461 ft 147 kts 60°
2026-04-23 04:45 19.43197 -99.07711 7331 ft 137 kts 62°
2026-04-23 04:45 19.43628 -99.06929 7326 ft 101 kts 59°
2026-04-23 04:45 19.43908 -99.06438 7325 ft 51 kts 63°
2026-04-23 04:45 19.43965 -99.06245 7325 ft 16 kts 85°
2026-04-23 04:46 19.43968 -99.06141 7325 ft 9 kts 90°
2026-04-23 04:46 19.43967 -99.06070 7325 ft 8 kts 108°
2026-04-23 04:46 19.43925 -99.06074 7325 ft 7 kts 219°
2026-04-23 04:46 19.43893 -99.06119 7325 ft 7 kts 239°
2026-04-23 04:47 19.43864 -99.06169 7325 ft 8 kts 239°
2026-04-23 04:47 19.43835 -99.06220 7325 ft 8 kts 239°
2026-04-23 04:47 19.43800 -99.06284 7325 ft 12 kts 240°
2026-04-23 04:47 19.43752 -99.06372 7325 ft 15 kts 239°
2026-04-23 04:48 19.43695 -99.06473 7325 ft 16 kts 239°
2026-04-23 04:48 19.43637 -99.06575 7325 ft 16 kts 239°
2026-04-23 04:48 19.43575 -99.06677 7325 ft 16 kts 230°
2026-04-23 04:48 19.43478 -99.06744 7326 ft 16 kts 206°
2026-04-23 04:49 19.43410 -99.06840 7326 ft 16 kts 250°
2026-04-23 04:49 19.43355 -99.06949 7326 ft 17 kts 239°
2026-04-23 04:49 19.43292 -99.07056 7326 ft 17 kts 237°
2026-04-23 04:49 19.43258 -99.07176 7326 ft 17 kts 258°
2026-04-23 04:50 19.43222 -99.07298 7326 ft 17 kts 243°
2026-04-23 04:50 19.43162 -99.07413 7326 ft 17 kts 239°
2026-04-23 04:50 19.43096 -99.07528 7326 ft 18 kts 240°
2026-04-23 04:50 19.43032 -99.07645 7327 ft 18 kts 239°
2026-04-23 04:51 19.42963 -99.07757 7327 ft 17 kts 228°
2026-04-23 04:51 19.42865 -99.07836 7327 ft 17 kts 209°
2026-04-23 04:51 19.42762 -99.07909 7327 ft 17 kts 229°
2026-04-23 04:51 19.42696 -99.08021 7327 ft 18 kts 239°
2026-04-23 04:52 19.42631 -99.08137 7327 ft 18 kts 238°
2026-04-23 04:52 19.42567 -99.08250 7327 ft 13 kts 239°
2026-04-23 04:52 19.42502 -99.08278 7327 ft 11 kts 155°
2026-04-23 04:52 19.42434 -99.08234 7328 ft 11 kts 149°
2026-04-23 04:53 19.42370 -99.08245 7328 ft 10 kts 259°
2026-04-23 04:53 19.42396 -99.08318 7328 ft 10 kts 293°
2026-04-23 04:53 19.42423 -99.08362 7328 ft 4 kts 350°
2026-04-23 04:53 19.42457 -99.08352 7328 ft 5 kts 22°
2026-04-23 04:54 19.42470 -99.08347 7328 ft 0 kts 23°